KUIPER-00236

导读

KUIPER-00236(NORAD编号68582)是亚马逊Amazon Leo(原Project Kuiper)低轨卫星互联网星座计划中的一颗通信卫星。该计划前身为Kuiper项目,2025年11月更名为Amazon Leo,旨在为全球网络覆盖不足区域提供高速低延迟互联网服务。星座一期规划部署3232颗卫星,分布于590-630km近地轨道,KUIPER-00236是项目批量发射部署的卫星之一,将为后续全球组网,提供个人消费、企业及政府等多场景卫星互联网服务支撑。目前该项目已进入加速发射阶段,计划2026年7月前完成一半组网部署。

Basic Information
目录编号:
68582
目录名称:
KUIPER-00236
国际标识:
2026-072K
轨道中心:
EARTH
卫星名称:
KUIPER-00236
卫星全名:
KUIPER-00236
卫星状态:
在轨 (已飞行70 天)
发射日期:
2026-04-04 UTC
国别 :
美国 (US)
星等 :
--
Orbit Information
数据来源 国际轨道数据
星历时间: 2026-06-12T14:18:02+0800
19小时前
查看轨道信息
半长轴: 6831.919km
偏心率: 0.0003302
轨道倾角: 51.873°
近地点辐角 4.320°
升交点赤经 200.689°
平近点角 355.781°
近地点: 451.526km
远地点: 456.038km
周期: 93.664分钟
每日圈数: 15.374067
Detailed Information
使用方式:
暂无
2D Orbit Map
3D Orbit Map
Orbit Altitude Analysis Chart
Orbit Inclination Analysis Chart
Orbit Comprehensive Analysis Chart
View Comprehensive Chart